GW3786 Weather Reports


time (UTC)temp
F
wind
direction
speed
knots
gust
knots
rain 1hr
in
rain 24hr
in
rain mn
in
humidity
%
barometer
mb
20260503050508 34 193 0.0 0.9 0.00 0.00 0.00 90 1016.1
20260503044300 34 183 0.0 0.9 0.00 0.00 0.00 90 1016.1
20260503042758 35 183 0.0 0.9 0.00 0.00 0.00 89 1016.0
20260503041256 35 183 0.0 0.9 0.00 0.00 0.00 88 1016.1
20260503040455 36 168 0.0 0.9 0.00 0.00 0.00 88 1016.1
20260503034950 36 196 0.0 1.7 0.00 0.01 0.00 89 1016.1
20260503032755 36 148 0.0 1.7 0.00 0.01 0.00 89 1016.3
20260503031252 36 211 0.0 0.9 0.00 0.01 0.00 89 1016.4
20260503025751 36 219 0.0 0.9 0.00 0.01 0.00 89 1016.6
20260503024948 36 219 0.0 0.9 0.00 0.01 0.00 88 1016.5
20260503022749 37 226 0.0 0.9 0.00 0.01 0.00 87 1016.5
20260503021246 37 226 0.0 0.0 0.00 0.01 0.00 86 1016.5
20260503020446 38 226 0.0 0.0 0.00 0.01 0.00 85 1016.3
20260503014246 38 226 0.0 0.0 0.00 0.01 0.00 85 1016.2
20260503012744 38 226 0.0 0.9 0.00 0.01 0.00 84 1016.1
20260503011242 38 226 0.0 0.9 0.00 0.01 0.00 83 1016.2
20260503005740 39 226 0.0 0.9 0.00 0.01 0.00 81 1016.3
20260503004240 39 226 0.0 0.9 0.00 0.01 0.00 80 1016.2
20260503002740 40 231 0.0 2.6 0.00 0.01 0.00 78 1016.1
20260503001240 40 325 0.0 0.0 0.00 0.01 0.00 78 1016.1
20260502235738 40 325 0.0 2.6 0.00 0.01 0.00 77 1016.1
20260502234237 41 317 0.9 2.6 0.00 0.01 0.00 76 1016.0
20260502232729 41 33 1.7 2.6 0.00 0.01 0.00 76 1016.0
20260502231230 41 297 0.0 1.7 0.00 0.01 0.00 75 1016.0
20260502230433 41 289 0.9 3.5 0.00 0.01 0.00 74 1015.9
20260502224924 41 303 1.7 3.5 0.00 0.01 0.00 73 1015.9
20260502222729 41 262 1.7 5.2 0.00 0.01 0.00 72 1015.9
20260502221230 41 286 1.7 4.3 0.00 0.01 0.00 71 1016.0
20260502215730 41 294 0.9 4.3 0.00 0.01 0.00 74 1015.8
20260502214230 41 349 1.7 4.3 0.00 0.01 0.00 74 1015.8
20260502213419 41 346 0.9 3.5 0.00 0.01 0.00 74 1015.8
20260502211230 41 359 2.6 7.0 0.00 0.01 0.00 74 1015.8
20260502210420 41 335 2.6 6.1 0.00 0.01 0.00 73 1015.8
20260502205637 41 50 3.5 8.7 0.00 0.01 0.00 73 1015.8
20260502202727 40 45 4.3 8.7 0.00 0.01 0.00 73 1015.9
20260502201227 40 356 2.6 7.8 0.00 0.01 0.00 75 1016.0
20260502195728 40 300 2.6 7.0 0.00 0.01 0.00 77 1016.0
20260502194227 39 348 4.3 8.7 0.00 0.01 0.00 76 1016.2
20260502192727 40 284 6.1 13.0 0.00 0.01 0.00 77 1016.1
20260502191229 42 291 3.5 10.4 0.00 0.01 0.00 74 1015.9
20260502185729 42 335 4.3 9.6 0.00 0.01 0.00 72 1016.1
20260502184225 42 34 5.2 12.2 0.00 0.01 0.00 73 1016.2
20260502182723 42 20 4.3 10.4 0.00 0.01 0.00 75 1016.3
20260502181223 41 328 4.3 8.7 0.00 0.01 0.00 78 1016.2
20260502164211 41 316 4.3 8.7 0.00 0.03 0.00 74 1016.3
20260502162711 41 8 3.5 8.7 0.00 0.03 0.00 76 1016.4
20260502161910 41 316 2.6 7.0 0.00 0.03 0.00 77 1016.3
20260502151205 41 39 3.5 10.4 0.00 0.03 0.00 78 1016.1
20260502122703 34 349 1.7 6.1 0.00 0.07 0.00 88 1015.4
20260502121201 33 284 1.7 6.1 0.00 0.09 0.00 88 1015.5
20260502115659 33 340 1.7 5.2 0.00 0.09 0.00 89 1015.5
20260502114159 32 278 0.9 3.5 0.00 0.09 0.00 89 1015.4
20260502112658 32 262 0.0 0.9 0.00 0.09 0.00 90 1015.6
20260502111159 32 316 0.0 1.7 0.00 0.09 0.00 89 1015.4
20260502105656 31 216 0.0 0.9 0.00 0.09 0.00 90 1015.0
20260502104157 31 207 0.0 1.7 0.00 0.09 0.00 90 1014.9
20260502102656 31 216 0.0 1.7 0.00 0.09 0.00 90 1015.2
20260502101157 31 203 0.0 1.7 0.00 0.09 0.00 89 1015.0
20260502100356 31 217 0.9 2.6 0.00 0.09 0.00 90 1014.9
20260502091155 32 268 0.0 1.7 0.00 0.09 0.00 90 1014.9
20260502065636 35 292 0.9 2.6 0.00 0.09 0.00 94 1014.8
20260502064136 35 243 0.0 1.7 0.00 0.09 0.00 94 1015.0
20260502063347 36 216 0.9 1.7 0.00 0.09 0.00 94 1014.9
20260502061132 36 263 0.9 2.6 0.00 0.09 0.00 94 1015.1
20260502060337 36 242 0.0 0.9 0.00 0.09 0.00 94 1015.1
20260502054127 36 226 0.0 0.9 0.00 0.09 0.00 93 1015.4
20260502053326 37 234 0.0 0.9 0.00 0.09 0.00 93 1015.2
20260502051127 37 231 0.0 1.7 0.00 0.09 0.00 93 1015.4